When you browse on this site, cookies collect data to enhance your experience and personalize the content and advertising you see.
Visit our Privacy Policy to learn more. By continuing to use the site, you agree to this use of cookies and data.
  • In Austria
  • List of Countries
  • For 7 days
  • Water Temperature
  • Satellite Maps
  • Weather Map
  • News
  • Weather Widgets
  • user-avatar
    Login

    Hourly Weather Barra

    Today, 19 November, Monday

    Time Temperature Precipitation Wind Pressure Humidity
    00:00 +23°C° 0 mm 2 mps 748 mmHg 89%
    01:00 +23°C° 0 mm 2 mps 748 mmHg 90%
    02:00 +23°C° 0 mm 2 mps 748 mmHg 91%
    03:00 +23°C° 0 mm 2 mps 748 mmHg 91%
    04:00 +23°C° 0 mm 2 mps 748 mmHg 91%
    05:00 +24°C° 0 mm 2 mps 748 mmHg 85%
    06:00 +25°C° 0 mm 3 mps 748 mmHg 80%
    07:00 +26°C° 0 mm 3 mps 748 mmHg 74%
    08:00 +28°C° 0 mm 3 mps 748 mmHg 68%
    09:00 +29°C° 0 mm 3 mps 748 mmHg 61%
    10:00 +32°C° 0 mm 4 mps 749 mmHg 53%
    11:00 +32°C° 0 mm 4 mps 748 mmHg 50%
    12:00 +33°C° 0 mm 4 mps 748 mmHg 47%
    13:00 +34°C° 0 mm 4 mps 747 mmHg 44%
    14:00 +33°C° 0 mm 4 mps 747 mmHg 46%
    15:00 +33°C° 0 mm 4 mps 747 mmHg 48%
    16:00 +32°C° 0 mm 4 mps 747 mmHg 50%
    17:00 +29°C° 0 mm 3 mps 747 mmHg 58%
    18:00 +28°C° 0 mm 3 mps 748 mmHg 66%
    19:00 +26°C° 0 mm 2 mps 748 mmHg 74%
    20:00 +25°C° 0 mm 2 mps 748 mmHg 78%
    21:00 +25°C° 0 mm 2 mps 749 mmHg 82%
    22:00 +24°C° 0 mm 2 mps 749 mmHg 86%
    23:00 +24°C° 0 mm 3 mps 749 mmHg 87%

    Tomorrow, 20 November, Tuesday

    Time Temperature Precipitation Wind Pressure Humidity
    00:00 +24°C° 0 mm 3 mps 749 mmHg 87%
    01:00 +24°C° 0 mm 3 mps 748 mmHg 87%
    02:00 +24°C° 0.1 mm 3 mps 748 mmHg 88%
    03:00 +24°C° 0.1 mm 3 mps 748 mmHg 89%
    04:00 +24°C° 0.1 mm 3 mps 748 mmHg 89%
    05:00 +25°C° 0.1 mm 3 mps 748 mmHg 86%
    06:00 +26°C° 0.1 mm 3 mps 748 mmHg 83%
    07:00 +26°C° 0.1 mm 3 mps 748 mmHg 80%
    08:00 +28°C° 0.1 mm 3 mps 748 mmHg 71%
    09:00 +29°C° 0.1 mm 3 mps 748 mmHg 63%
    10:00 +31°C° 0.1 mm 3 mps 748 mmHg 55%
    11:00 +33°C° 0 mm 4 mps 748 mmHg 52%
    12:00 +34°C° 0 mm 4 mps 747 mmHg 49%
    13:00 +34°C° 0 mm 4 mps 747 mmHg 46%
    14:00 +34°C° 0 mm 4 mps 747 mmHg 47%
    15:00 +33°C° 0 mm 4 mps 746 mmHg 49%
    16:00 +33°C° 0 mm 3 mps 746 mmHg 51%
    17:00 +30°C° 0 mm 3 mps 746 mmHg 59%
    18:00 +28°C° 0 mm 3 mps 747 mmHg 68%
    19:00 +26°C° 0 mm 2 mps 747 mmHg 76%
    20:00 +26°C° 0 mm 2 mps 748 mmHg 80%
    21:00 +25°C° 0 mm 2 mps 748 mmHg 84%
    22:00 +24°C° 0 mm 2 mps 748 mmHg 89%
    23:00 +24°C° 0 mm 2 mps 748 mmHg 89%

    Day after tomorrow, 21 November, Wednesday

    Time Temperature Precipitation Wind Pressure Humidity
    00:00 +24°C° 0 mm 2 mps 748 mmHg 89%
    01:00 +24°C° 0 mm 2 mps 747 mmHg 90%
    02:00 +24°C° 0 mm 2 mps 747 mmHg 90%
    03:00 +24°C° 0 mm 2 mps 747 mmHg 90%
    04:00 +24°C° 0 mm 2 mps 747 mmHg 90%
    05:00 +25°C° 0 mm 2 mps 747 mmHg 87%
    06:00 +26°C° 0 mm 2 mps 748 mmHg 84%
    07:00 +26°C° 0 mm 2 mps 748 mmHg 81%
    08:00 +28°C° 0 mm 2 mps 748 mmHg 71%
    09:00 +31°C° 0 mm 2 mps 748 mmHg 61%
    10:00 +34°C° 0 mm 2 mps 748 mmHg 51%
    11:00 +35°C° 0 mm 3 mps 748 mmHg 48%
    12:00 +35°C° 0 mm 3 mps 747 mmHg 45%
    13:00 +36°C° 0 mm 4 mps 746 mmHg 43%
    14:00 +35°C° 0 mm 4 mps 746 mmHg 46%
    15:00 +35°C° 0 mm 4 mps 745 mmHg 48%
    16:00 +34°C° 0 mm 4 mps 744 mmHg 51%
    17:00 +32°C° 0 mm 4 mps 745 mmHg 60%
    18:00 +29°C° 0 mm 4 mps 745 mmHg 69%
    19:00 +27°C° 0 mm 3 mps 745 mmHg 78%
    20:00 +27°C° 0 mm 3 mps 746 mmHg 81%
    21:00 +26°C° 0 mm 3 mps 746 mmHg 85%
    22:00 +26°C° 0 mm 3 mps 747 mmHg 88%
    23:00 +26°C° 0 mm 3 mps 746 mmHg 89%

    22 November, Thursday

    Time Temperature Precipitation Wind Pressure Humidity
    00:00 +26°C° 0 mm 3 mps 746 mmHg 90%
    01:00 +26°C° 0 mm 3 mps 746 mmHg 90%
    02:00 +26°C° 0 mm 3 mps 746 mmHg 90%
    03:00 +25°C° 0 mm 3 mps 745 mmHg 90%
    04:00 +25°C° 0 mm 3 mps 745 mmHg 90%
    05:00 +26°C° 0 mm 3 mps 746 mmHg 86%
    06:00 +27°C° 0 mm 3 mps 746 mmHg 82%
    07:00 +28°C° 0 mm 3 mps 747 mmHg 77%
    08:00 +30°C° 0 mm 3 mps 747 mmHg 66%
    09:00 +34°C° 0 mm 4 mps 747 mmHg 55%
    10:00 +37°C° 0 mm 4 mps 747 mmHg 44%
    11:00 +37°C° 0 mm 4 mps 747 mmHg 42%
    12:00 +38°C° 0 mm 4 mps 746 mmHg 41%
    13:00 +39°C° 0 mm 5 mps 745 mmHg 40%
    14:00 +36°C° 0.2 mm 4 mps 745 mmHg 50%
    15:00 +34°C° 0.2 mm 4 mps 745 mmHg 60%
    16:00 +32°C° 0.2 mm 4 mps 744 mmHg 70%
    17:00 +30°C° 0.2 mm 3 mps 745 mmHg 74%
    18:00 +29°C° 0.2 mm 3 mps 745 mmHg 78%
    19:00 +28°C° 0.2 mm 3 mps 746 mmHg 82%
    20:00 +28°C° 0.2 mm 3 mps 746 mmHg 83%
    21:00 +28°C° 0.2 mm 3 mps 747 mmHg 84%
    22:00 +27°C° 0.2 mm 3 mps 747 mmHg 85%
    23:00 +27°C° 0.6 mm 3 mps 747 mmHg 86%

    23 November, Friday

    Time Temperature Precipitation Wind Pressure Humidity
    00:00 +27°C° 0.6 mm 3 mps 747 mmHg 87%
    01:00 +27°C° 0.6 mm 3 mps 746 mmHg 87%
    02:00 +26°C° 0.8 mm 2 mps 746 mmHg 88%
    03:00 +26°C° 0.8 mm 2 mps 746 mmHg 89%
    04:00 +26°C° 0.8 mm 2 mps 746 mmHg 89%
    05:00 +27°C° 0.3 mm 2 mps 746 mmHg 86%
    06:00 +27°C° 0.3 mm 2 mps 747 mmHg 83%
    07:00 +28°C° 0.3 mm 2 mps 747 mmHg 79%
    08:00 +31°C° 0 mm 2 mps 748 mmHg 67%
    09:00 +34°C° 0 mm 1 mps 748 mmHg 55%
    10:00 +39°C° 0 mm 1 mps 748 mmHg 42%
    11:00 +38°C° 0 mm 2 mps 747 mmHg 44%
    12:00 +37°C° 0 mm 2 mps 747 mmHg 46%
    13:00 +36°C° 0 mm 3 mps 746 mmHg 48%
    14:00 +36°C° 0.1 mm 3 mps 746 mmHg 50%
    15:00 +36°C° 0.1 mm 4 mps 745 mmHg 52%
    16:00 +35°C° 0.1 mm 4 mps 745 mmHg 54%
    17:00 +34°C° 0 mm 4 mps 745 mmHg 62%
    18:00 +32°C° 0 mm 4 mps 746 mmHg 70%
    19:00 +29°C° 0 mm 4 mps 746 mmHg 78%
    20:00 +29°C° 0 mm 3 mps 747 mmHg 82%
    21:00 +28°C° 0 mm 3 mps 747 mmHg 85%
    22:00 +27°C° 0 mm 3 mps 748 mmHg 89%
    23:00 +27°C° 0 mm 3 mps 747 mmHg 89%

    24 November, Saturday

    Time Temperature Precipitation Wind Pressure Humidity
    00:00 +27°C° 0 mm 2 mps 747 mmHg 88%
    01:00 +27°C° 0 mm 2 mps 746 mmHg 88%
    02:00 +27°C° 0 mm 2 mps 746 mmHg 88%
    03:00 +27°C° 0 mm 2 mps 746 mmHg 89%
    04:00 +26°C° 0 mm 1 mps 746 mmHg 90%
    05:00 +27°C° 0 mm 1 mps 747 mmHg 83%
    06:00 +29°C° 0 mm 1 mps 747 mmHg 77%
    07:00 +30°C° 0 mm 1 mps 748 mmHg 71%
    08:00 +32°C° 0.1 mm 2 mps 748 mmHg 61%
    09:00 +36°C° 0.1 mm 2 mps 748 mmHg 51%
    10:00 +39°C° 0.1 mm 3 mps 748 mmHg 41%
    11:00 +39°C° 0 mm 3 mps 747 mmHg 42%
    12:00 +40°C° 0 mm 4 mps 747 mmHg 42%
    13:00 +38°C° 0 mm 4 mps 746 mmHg 43%
    14:00 +38°C° 0 mm 4 mps 745 mmHg 46%
    15:00 +37°C° 0 mm 5 mps 745 mmHg 49%
    16:00 +37°C° 0 mm 5 mps 744 mmHg 51%
    17:00 +35°C° 0 mm 5 mps 745 mmHg 60%
    18:00 +33°C° 0 mm 4 mps 745 mmHg 68%
    19:00 +30°C° 0 mm 4 mps 745 mmHg 76%
    20:00 +29°C° 0 mm 4 mps 746 mmHg 80%
    21:00 +29°C° 0 mm 4 mps 746 mmHg 83%
    22:00 +28°C° 0 mm 4 mps 747 mmHg 87%
    23:00 +28°C° 0 mm 4 mps 746 mmHg 88%
    Show more